Weather History for Warrensburg, MO

Change the Weather History Date:

Saturday, June 8, 2013

  Actual Average (KSZL) Record (KSZL)
Temperature  
Mean Temperature 64 °F -  
Max Temperature 78 °F 79 °F 91 °F (2011)
Min Temperature 51 °F 61 °F 52 °F (2013)
Growing Degree Days 14 (Base 50)    
Moisture  
Dew Point 54 °F    
Average Humidity 70    
Maximum Humidity 100    
Minimum Humidity 42    
Precipitation  
Precipitation 0.00 in - - ()
Sea Level Pressure  
Sea Level Pressure 29.90 in    
Wind  
Wind Speed 4 mph (SSE)    
Max Wind Speed 14 mph    
Max Gust Speed 20 mph    
Visibility 10 miles    
Events      
Averages and records for this station are not official NWS values.
T = Trace of Precipitation, MM = Missing Value Source: NWS Daily Summary

Daily Weather History Graph

Daily Weather History Graph

Search for Another Location

Airport:

Trip Planner

Search our weather history database for the weather conditions in past years. The results will help you decide how hot, cold, wet, or windy it might be!

Date:

Astronomy

Jun. 08, 2013 Rise Set
Actual Time 5:50 AM CDT 8:38 PM CDT
Civil Twilight 5:18 AM CDT 9:10 PM CDT
Nautical Twilight 4:38 AM CDT 9:50 PM CDT
Astronomical Twilight 3:53 AM CDT 10:36 PM CDT
Moon 5:57 AM CDT (6/8) 8:42 PM CDT (6/8)
Length of Visible Light 15h 52m
Length of Day
14h 48m
New Moon, 0% of the Moon is Illuminated
Jun 8
New Moon
Jun 16
First Quarter
Jun 23
Full
Jun 29
Last Quarter
Jul 8
New

Hourly Weather History & Observations

Time (CDT) Temp. Dew Point Humidity Pressure Visibility Wind Dir Wind Speed Gust Speed Precip Events Conditions
12:15 AM 55.4 °F 53.6 °F 94% 29.97 in 10.0 mi Calm Calm - N/A   Mostly Cloudy
12:35 AM 55.4 °F 53.6 °F 94% 29.96 in 10.0 mi Calm Calm - N/A   Overcast
12:55 AM 55.4 °F 53.6 °F 94% 29.96 in 10.0 mi Calm Calm - N/A   Mostly Cloudy
1:15 AM 55.4 °F 53.6 °F 94% 29.95 in 10.0 mi Calm Calm - N/A   Mostly Cloudy
1:35 AM 55.4 °F 53.6 °F 94% 29.95 in 10.0 mi Calm Calm - N/A   Mostly Cloudy
1:55 AM 55.4 °F 53.6 °F 94% 29.94 in 10.0 mi Calm Calm - N/A   Scattered Clouds
2:15 AM 55.4 °F 51.8 °F 88% 29.93 in 10.0 mi Calm Calm - N/A   Clear
2:35 AM 55.4 °F 53.6 °F 94% 29.93 in 10.0 mi Calm Calm - N/A   Clear
2:55 AM 53.6 °F 53.6 °F 100% 29.92 in 10.0 mi Calm Calm - N/A   Clear
3:15 AM 53.6 °F 51.8 °F 94% 29.91 in 10.0 mi SSE 3.5 mph - N/A   Clear
3:35 AM 51.8 °F 50.0 °F 94% 29.91 in 10.0 mi Calm Calm - N/A   Clear
3:55 AM 53.6 °F 51.8 °F 94% 29.91 in 10.0 mi SSE 3.5 mph - N/A   Clear
4:15 AM 51.8 °F 51.8 °F 100% 29.91 in 10.0 mi Calm Calm - N/A   Clear
4:35 AM 51.8 °F 50.0 °F 94% 29.92 in 10.0 mi Calm Calm - N/A   Clear
4:55 AM 51.8 °F 50.0 °F 94% 29.93 in 7.0 mi Calm Calm - N/A   Clear
5:15 AM 51.8 °F 50.0 °F 94% 29.94 in 10.0 mi Calm Calm - N/A   Clear
5:35 AM 51.8 °F 51.8 °F 100% 29.94 in 7.0 mi Calm Calm - N/A   Clear
5:55 AM 51.8 °F 50.0 °F 94% 29.94 in 10.0 mi SE 3.5 mph - N/A   Clear
6:15 AM 51.8 °F 50.0 °F 94% 29.94 in 10.0 mi SE 3.5 mph - N/A   Clear
6:35 AM 51.8 °F 50.0 °F 94% 29.94 in 10.0 mi Calm Calm - N/A   Clear
6:55 AM 53.6 °F 51.8 °F 94% 29.94 in 10.0 mi SSE 4.6 mph - N/A   Clear
7:15 AM 55.4 °F 51.8 °F 88% 29.95 in 10.0 mi South 3.5 mph - N/A   Clear
7:35 AM 57.2 °F 53.6 °F 88% 29.95 in 10.0 mi South 3.5 mph - N/A   Clear
7:55 AM 60.8 °F 53.6 °F 77% 29.95 in 10.0 mi SSE 4.6 mph - N/A   Clear
8:15 AM 60.8 °F 55.4 °F 82% 29.95 in 10.0 mi SSE 4.6 mph - N/A   Clear
8:35 AM 62.6 °F 55.4 °F 77% 29.94 in 10.0 mi SSE 5.8 mph - N/A   Clear
8:55 AM 64.4 °F 53.6 °F 68% 29.95 in 10.0 mi South 9.2 mph - N/A   Clear
9:15 AM 68.0 °F 53.6 °F 60% 29.94 in 10.0 mi SSE 6.9 mph - N/A   Clear
9:35 AM 68.0 °F 53.6 °F 60% 29.95 in 10.0 mi South 8.1 mph - N/A   Clear
9:55 AM 69.8 °F 53.6 °F 56% 29.95 in 10.0 mi South 10.4 mph - N/A   Clear
10:15 AM 69.8 °F 53.6 °F 56% 29.94 in 10.0 mi South 8.1 mph - N/A   Clear
10:35 AM 69.8 °F 53.6 °F 56% 29.94 in 10.0 mi South 9.2 mph - N/A   Clear
10:55 AM 71.6 °F 53.6 °F 53% 29.94 in 10.0 mi South 8.1 mph - N/A   Clear
11:15 AM 71.6 °F 51.8 °F 50% 29.94 in 10.0 mi South 10.4 mph 17.3 mph N/A   Clear
11:35 AM 73.4 °F 53.6 °F 50% 29.93 in 10.0 mi South 6.9 mph - N/A   Clear
11:55 AM 73.4 °F 51.8 °F 47% 29.93 in 10.0 mi South 6.9 mph - N/A   Clear
12:15 PM 73.4 °F 50.0 °F 44% 29.92 in 10.0 mi South 8.1 mph - N/A   Clear
12:35 PM 73.4 °F 51.8 °F 47% 29.91 in 10.0 mi South 6.9 mph - N/A   Clear
12:55 PM 73.4 °F 51.8 °F 47% 29.91 in 10.0 mi SSE 9.2 mph - N/A   Clear
1:15 PM 75.2 °F 51.8 °F 44% 29.90 in 10.0 mi South 6.9 mph 17.3 mph N/A   Clear
2:35 PM 77.0 °F 53.6 °F 44% 29.88 in 10.0 mi SE 9.2 mph - N/A   Clear
2:55 PM 77.0 °F 53.6 °F 44% 29.88 in 10.0 mi SSE 8.1 mph - N/A   Clear
3:15 PM 78.8 °F 53.6 °F 42% 29.87 in 10.0 mi SE 10.4 mph - N/A   Scattered Clouds
3:55 PM 77.0 °F 55.4 °F 47% 29.86 in 10.0 mi SE 12.7 mph 18.4 mph N/A   Mostly Cloudy
4:35 PM 77.0 °F 55.4 °F 47% 29.86 in 10.0 mi South 11.5 mph 17.3 mph N/A   Clear
4:55 PM 77.0 °F 55.4 °F 47% 29.85 in 10.0 mi SSE 10.4 mph 18.4 mph N/A   Clear
5:15 PM 77.0 °F 55.4 °F 47% 29.85 in 10.0 mi SSE 9.2 mph - N/A   Clear
5:35 PM 78.8 °F 55.4 °F 44% 29.84 in 10.0 mi SSE 8.1 mph - N/A   Clear
5:55 PM 77.0 °F 55.4 °F 47% 29.83 in 10.0 mi SE 13.8 mph 18.4 mph N/A   Clear
6:15 PM 77.0 °F 55.4 °F 47% 29.83 in 10.0 mi SSE 12.7 mph 19.6 mph N/A   Clear
6:35 PM 77.0 °F 55.4 °F 47% 29.81 in 10.0 mi SE 10.4 mph 16.1 mph N/A   Clear
6:55 PM 77.0 °F 57.2 °F 50% 29.81 in 10.0 mi SE 11.5 mph 16.1 mph N/A   Clear
7:15 PM 77.0 °F 55.4 °F 47% 29.82 in 10.0 mi SSE 8.1 mph - N/A   Clear
8:35 PM 69.8 °F 59.0 °F 68% 29.85 in 10.0 mi SE 5.8 mph - N/A   Clear
8:55 PM 69.8 °F 57.2 °F 64% 29.84 in 10.0 mi ESE 5.8 mph - N/A   Clear
9:15 PM 69.8 °F 57.2 °F 64% 29.84 in 10.0 mi ESE 8.1 mph - N/A   Clear
9:35 PM 69.8 °F 55.4 °F 60% 29.85 in 10.0 mi SE 6.9 mph - N/A   Clear
9:55 PM 69.8 °F 55.4 °F 60% 29.86 in 10.0 mi SE 5.8 mph - N/A   Clear
10:15 PM 68.0 °F 57.2 °F 68% 29.86 in 10.0 mi SE 5.8 mph - N/A   Clear
10:35 PM 69.8 °F 57.2 °F 64% 29.86 in 10.0 mi SSE 6.9 mph - N/A   Clear
10:55 PM 68.0 °F 57.2 °F 68% 29.85 in 10.0 mi SE 8.1 mph - N/A   Clear
11:35 PM 68.0 °F 57.2 °F 68% 29.85 in 10.0 mi SSE 8.1 mph - N/A   Clear
11:55 PM 69.8 °F 57.2 °F 64% 29.85 in 10.0 mi SSE 6.9 mph - N/A   Scattered Clouds